FREGAT DEB, 40078

Orbit data source: Space-Track

FREGAT DEB, 40078 is space debris in SSO originally from a launch on Tue, 08 Jul 2014 UTC launched from the Tyuratam Missile And Space Complex (TTMTR). Debris objects in space refer to the collection of defunct objects orbiting the Earth. Examples of debris include non-operational satellites, rocket bodies, and fragments generated from explosions, collisions, or faulty payload assembly.

Loading next visibility...
Identifier
40078, 2014-037K
Orbit
SSO
Last TLE update
15 hours ago
Origin
Manufacturer
Lavochkin
Mission
Spacecraft
Bus & Motor
Unknown
Mass
Unknown
Launch date (UTC)
2014-07-08 (11 years ago)
Launch vehicle
Unknown
Launch site
Tyuratam Missile And Space Complex (TTMTR)
Object type
Payload
Rocket body
Debris
Shape & HBR
Irr + 1 Truss, 3 m
Radar Cross Section
7.500 m², Large (>1 m²)

Expand to show TLE details & history

TLE from 15 hours ago
0 FREGAT DEB
1 40078U 14037K   25183.52521273  .00000550  00000-0  12329-3 0  9990
2 40078  98.0273 168.9673 0132932  73.8939 287.6847 14.55080146582268
Epoch: 2025-07-02T12:36Z
TLE epoch observation values (Epoch: 2025-07-02T12:36:18.379Z)
Latitude
-0.00004°
Longitude
59.08566°
Altitude
684.607 km
Speed
7.529 km/s
True Right ascension
11h 15m 52s
True Declination
0° 00' 00"
Sunlit
Object was in daylight at epoch
Visualization orbit readout
Latitude
29.42763°
Longitude
55.14758°
Altitude
642.512 km
Speed
7.577 km/s
Apparent Right ascension
07h 49m 46s
Apparent Declination
-6° 03' 59"
Sunlit
Object is in daylight
Visualization observer readout
Local Sidereal Time
15:20:43
Azimuth
280.235° WNW
Elevation
-21.262°
Doppler factor
1
Orbital elements
Apogee altitude
800.357 km
Perigee altitude
612.01 km
Semi-major axis
7,084.321 km
Eccentricity
0.01329
Inclination
98.0273°
RAAN
168.9673°
Arg. of periapsis
73.8939°
True anomaly
Unknown
Mean anomaly
287.6847°
Eccentric anomaly
Unknown
Mean motion
3.63995 °/min
Orbital period
98.9 mins
BSTAR
0.00012329
Loading maneuver chart data...
Loading SW <> Apogee altitude chart data...
Loading historical data...
Loading historical data...
Loading historical data...
Loading historical data...
Loading historical data...
Loading historical data...
Loading historical data...

FREGAT DEB Visibility forecast

Observer location: undefined°, undefined°

Span
Click to sort rows by Start time (UTC) header in descending order
Start Az.
Max El. time (UTC)
Max El. Az.
Max El.
End time (UTC)
End Az.
6 mins2025-07-03 12:17:31.291Z353.781° N2025-07-03 12:19:31.291Z308.664° NW38.566°2025-07-03 12:23:31.291Z212.452° SW
7 mins2025-07-03 23:23:31.291Z188.799° SSW2025-07-03 23:26:31.291Z264.552° W38.262°2025-07-03 23:30:31.291Z336.697° NNW
|